Time,TemperatureF,DewpointF,PressureIn,WindDirection,WindDirectionDegrees,WindSpeedMPH,WindSpeedGustMPH,Humidity,HourlyPrecipIn,Conditions,Clouds,dailyrainin,SoftwareType,DateUTC
2018-01-22 00:03:00,43.0,40.0,30.13,South,190,1.0,10.0,88,-99.99,,,-99.99,,2018-01-22 08:03:00,
2018-01-22 00:33:00,44.0,40.0,30.13,SW,218,0.0,8.0,87,-99.99,,,-99.99,,2018-01-22 08:33:00,
2018-01-22 01:03:00,43.0,40.0,30.14,SW,215,1.0,10.0,88,-99.99,,,-99.99,,2018-01-22 09:03:00,
2018-01-22 02:02:00,43.0,40.0,30.16,SSW,195,0.0,7.0,90,-99.99,,,-99.99,,2018-01-22 10:02:00,
2018-01-22 02:34:00,43.0,40.0,30.16,SSW,202,1.0,8.0,90,-99.99,,,-99.99,,2018-01-22 10:34:00,
2018-01-22 03:33:00,42.0,39.0,30.18,South,191,3.0,10.0,90,-99.99,,,-99.99,,2018-01-22 11:33:00,
2018-01-22 04:04:00,43.0,40.0,30.18,SSW,198,5.0,11.0,89,-99.99,,,-99.99,,2018-01-22 12:04:00,
2018-01-22 04:34:00,43.0,40.0,30.18,SSW,206,4.0,11.0,89,-99.99,,,-99.99,,2018-01-22 12:34:00,
2018-01-22 05:02:00,43.0,40.0,30.19,SSW,192,6.0,12.0,89,-99.99,,,-99.99,,2018-01-22 13:02:00,
2018-01-22 05:33:00,43.0,40.0,30.18,SSW,200,7.0,12.0,89,-99.99,,,-99.99,,2018-01-22 13:33:00,
2018-01-22 06:03:00,43.0,40.0,30.19,SW,219,4.0,10.0,89,-99.99,,,-99.99,,2018-01-22 14:03:00,
2018-01-22 06:32:00,42.0,40.0,30.21,WSW,250,0.0,2.0,93,-99.99,,,-99.99,,2018-01-22 14:32:00,
2018-01-22 07:03:00,42.0,40.0,30.22,SW,224,2.0,10.0,94,-99.99,,,-99.99,,2018-01-22 15:03:00,
2018-01-22 07:34:00,42.0,41.0,30.22,SW,225,1.0,11.0,95,-99.99,,,-99.99,,2018-01-22 15:34:00,
2018-01-22 08:04:00,42.0,41.0,30.24,SW,220,6.0,14.0,95,-99.99,,,-99.99,,2018-01-22 16:04:00,
2018-01-22 08:34:00,43.0,41.0,30.25,SW,225,6.0,12.0,94,-99.99,,,-99.99,,2018-01-22 16:34:00,
2018-01-22 09:03:00,43.0,41.0,30.26,SW,223,6.0,12.0,94,-99.99,,,-99.99,,2018-01-22 17:03:00,
2018-01-22 09:33:00,44.0,42.0,30.27,SW,227,8.0,13.0,94,-99.99,,,-99.99,,2018-01-22 17:33:00,
2018-01-22 10:03:00,44.0,42.0,30.29,SW,223,8.0,17.0,94,-99.99,,,-99.99,,2018-01-22 18:03:00,
2018-01-22 10:34:00,44.0,42.0,30.29,SW,224,8.0,14.0,93,-99.99,,,-99.99,,2018-01-22 18:34:00,
2018-01-22 11:02:00,45.0,43.0,30.30,SW,228,9.0,15.0,92,-99.99,,,-99.99,,2018-01-22 19:02:00,
2018-01-22 11:33:00,46.0,44.0,30.30,SW,228,8.0,16.0,91,-99.99,,,-99.99,,2018-01-22 19:33:00,
2018-01-22 12:04:00,46.0,43.0,30.30,SW,226,4.0,14.0,90,-99.99,,,-99.99,,2018-01-22 20:04:00,
2018-01-22 12:32:00,47.0,43.0,30.30,SW,230,5.0,13.0,87,-99.99,,,-99.99,,2018-01-22 20:32:00,
2018-01-22 13:03:00,47.0,43.0,30.31,WSW,248,3.0,13.0,86,-99.99,,,-99.99,,2018-01-22 21:03:00,